| time (UTC) | temp C | wind direction | speed KPH | gust KPH | rain 1hr cm | rain 24hr cm | rain mn cm | humidity % | barometer mb |
| 20260504000601 | 20 | 308 | 20.9 | 32.2 | 0.00 | 0.00 | 0.00 | 24 | 1004.7 |
| 20260504000058 | 20 | 293 | 19.3 | 27.4 | 0.00 | 0.00 | 0.00 | 24 | 1004.5 |
| 20260503235556 | 20 | 286 | 24.1 | 40.2 | 0.00 | 0.00 | 0.00 | 24 | 1004.5 |
| 20260503235053 | 20 | 280 | 16.1 | 38.6 | 0.00 | 0.00 | 0.00 | 23 | 1004.8 |
| 20260503234551 | 20 | 283 | 11.3 | 25.7 | 0.00 | 0.00 | 0.00 | 23 | 1004.6 |
| 20260503234049 | 20 | 297 | 17.7 | 24.1 | 0.00 | 0.00 | 0.00 | 23 | 1004.6 |
| 20260503233545 | 20 | 292 | 17.7 | 25.7 | 0.00 | 0.00 | 0.00 | 22 | 1004.5 |
| 20260503233041 | 20 | 267 | 12.9 | 25.7 | 0.00 | 0.00 | 0.00 | 23 | 1004.5 |
| 20260503232538 | 20 | 325 | 19.3 | 32.2 | 0.00 | 0.00 | 0.00 | 23 | 1004.6 |
| 20260503232036 | 20 | 298 | 25.7 | 33.8 | 0.00 | 0.00 | 0.00 | 23 | 1004.5 |
| 20260503231533 | 21 | 305 | 20.9 | 27.4 | 0.00 | 0.00 | 0.00 | 23 | 1004.7 |
| 20260503231030 | 21 | 333 | 24.1 | 37.0 | 0.00 | 0.00 | 0.00 | 23 | 1004.5 |
| 20260503230526 | 21 | 305 | 32.2 | 38.6 | 0.00 | 0.00 | 0.00 | 24 | 1004.5 |
| 20260503230024 | 21 | 284 | 33.8 | 40.2 | 0.00 | 0.00 | 0.00 | 23 | 1004.5 |
| 20260503225521 | 20 | 282 | 35.4 | 43.5 | 0.00 | 0.00 | 0.00 | 24 | 1004.6 |
| 20260503225016 | 20 | 258 | 24.1 | 46.7 | 0.00 | 0.00 | 0.00 | 24 | 1004.5 |
| 20260503224514 | 21 | 303 | 16.1 | 29.0 | 0.00 | 0.00 | 0.00 | 24 | 1004.6 |
| 20260503224011 | 21 | 297 | 24.1 | 37.0 | 0.00 | 0.00 | 0.00 | 24 | 1004.7 |
| 20260503223509 | 21 | 260 | 27.4 | 41.8 | 0.00 | 0.00 | 0.00 | 23 | 1004.4 |
| 20260503223004 | 21 | 287 | 19.3 | 22.5 | 0.00 | 0.00 | 0.00 | 24 | 1004.8 |
| 20260503222503 | 21 | 296 | 59.5 | 64.4 | 0.00 | 0.00 | 0.00 | 25 | 1004.6 |
| 20260503222000 | 21 | 308 | 20.9 | 51.5 | 0.00 | 0.00 | 0.00 | 25 | 1004.6 |
| 20260503221458 | 21 | 312 | 19.3 | 32.2 | 0.00 | 0.00 | 0.00 | 26 | 1004.3 |
| 20260503220955 | 21 | 275 | 22.5 | 33.8 | 0.00 | 0.00 | 0.00 | 25 | 1004.5 |
| 20260503220452 | 21 | 285 | 14.5 | 27.4 | 0.00 | 0.00 | 0.00 | 26 | 1004.3 |
| 20260503215948 | 21 | 296 | 12.9 | 43.5 | 0.00 | 0.00 | 0.00 | 28 | 1004.1 |
| 20260503215445 | 21 | 280 | 32.2 | 53.1 | 0.00 | 0.00 | 0.00 | 28 | 1004.4 |
| 20260503214943 | 21 | 329 | 37.0 | 59.5 | 0.00 | 0.00 | 0.00 | 29 | 1004.5 |
| 20260503214441 | 21 | 288 | 30.6 | 49.9 | 0.00 | 0.00 | 0.00 | 30 | 1004.3 |
| 20260503213938 | 21 | 298 | 33.8 | 40.2 | 0.00 | 0.00 | 0.00 | 32 | 1004.3 |
| 20260503213436 | 21 | 299 | 27.4 | 37.0 | 0.00 | 0.00 | 0.00 | 32 | 1004.4 |
| 20260503212932 | 21 | 298 | 16.1 | 27.4 | 0.00 | 0.00 | 0.00 | 35 | 1004.4 |
| 20260503212430 | 21 | 306 | 30.6 | 38.6 | 0.00 | 0.00 | 0.00 | 34 | 1004.3 |
| 20260503211927 | 21 | 281 | 24.1 | 41.8 | 0.00 | 0.00 | 0.00 | 33 | 1004.2 |
| 20260503211424 | 21 | 293 | 17.7 | 33.8 | 0.00 | 0.00 | 0.00 | 33 | 1004.2 |
| 20260503210919 | 21 | 285 | 14.5 | 32.2 | 0.00 | 0.00 | 0.00 | 35 | 1004.3 |
| 20260503210416 | 21 | 291 | 32.2 | 53.1 | 0.00 | 0.00 | 0.00 | 36 | 1004.3 |
| 20260503205910 | 21 | 36 | 14.5 | 33.8 | 0.00 | 0.00 | 0.00 | 34 | 1004.4 |
| 20260503205408 | 21 | 288 | 16.1 | 40.2 | 0.00 | 0.00 | 0.00 | 35 | 1004.6 |
| 20260503204904 | 21 | 312 | 35.4 | 49.9 | 0.00 | 0.00 | 0.00 | 31 | 1004.6 |
| 20260503204401 | 21 | 310 | 20.9 | 27.4 | 0.00 | 0.00 | 0.00 | 33 | 1004.6 |
| 20260503203859 | 21 | 327 | 24.1 | 29.0 | 0.00 | 0.00 | 0.00 | 33 | 1004.5 |
| 20260503203356 | 21 | 309 | 30.6 | 66.0 | 0.00 | 0.00 | 0.00 | 33 | 1004.4 |
| 20260503202852 | 21 | 333 | 16.1 | 43.5 | 0.00 | 0.00 | 0.00 | 35 | 1004.9 |
| 20260503202351 | 21 | 318 | 27.4 | 38.6 | 0.00 | 0.00 | 0.00 | 36 | 1004.8 |
| 20260503201849 | 21 | 287 | 33.8 | 40.2 | 0.00 | 0.00 | 0.00 | 35 | 1004.7 |
| 20260503201345 | 21 | 292 | 27.4 | 35.4 | 0.00 | 0.00 | 0.00 | 35 | 1004.8 |
| 20260503200843 | 21 | 283 | 16.1 | 27.4 | 0.00 | 0.00 | 0.00 | 34 | 1004.9 |
| 20260503200338 | 21 | 279 | 16.1 | 33.8 | 0.00 | 0.00 | 0.00 | 34 | 1005.1 |
| 20260503195836 | 21 | 298 | 19.3 | 35.4 | 0.00 | 0.00 | 0.00 | 34 | 1004.9 |
| 20260503195332 | 21 | 272 | 16.1 | 25.7 | 0.00 | 0.00 | 0.00 | 35 | 1004.8 |
| 20260503194830 | 21 | 296 | 27.4 | 37.0 | 0.00 | 0.00 | 0.00 | 35 | 1005.0 |
| 20260503194326 | 21 | 344 | 33.8 | 41.8 | 0.00 | 0.00 | 0.00 | 35 | 1004.9 |
| 20260503193822 | 21 | 265 | 11.3 | 33.8 | 0.00 | 0.00 | 0.00 | 35 | 1004.8 |
| 20260503193318 | 21 | 330 | 17.7 | 38.6 | 0.00 | 0.00 | 0.00 | 35 | 1005.0 |
| 20260503192814 | 21 | 278 | 20.9 | 38.6 | 0.00 | 0.00 | 0.00 | 36 | 1004.9 |
| 20260503192310 | 21 | 259 | 12.9 | 22.5 | 0.00 | 0.00 | 0.00 | 37 | 1004.9 |
| 20260503191806 | 20 | 307 | 16.1 | 22.5 | 0.00 | 0.00 | 0.00 | 36 | 1005.0 |
| 20260503191303 | 20 | 293 | 11.3 | 22.5 | 0.00 | 0.00 | 0.00 | 38 | 1005.2 |
| 20260503190800 | 20 | 318 | 4.8 | 11.3 | 0.00 | 0.00 | 0.00 | 39 | 1005.0 |
| 20260503190257 | 20 | 324 | 24.1 | 32.2 | 0.00 | 0.00 | 0.00 | 38 | 1005.2 |
| 20260503185754 | 20 | 339 | 14.5 | 20.9 | 0.00 | 0.00 | 0.00 | 40 | 1005.2 |
| 20260503185250 | 20 | 279 | 17.7 | 25.7 | 0.00 | 0.00 | 0.00 | 39 | 1005.3 |
| 20260503184744 | 20 | 259 | 9.7 | 20.9 | 0.00 | 0.00 | 0.00 | 40 | 1005.2 |
| 20260503184241 | 20 | 287 | 14.5 | 20.9 | 0.00 | 0.00 | 0.00 | 39 | 1005.3 |
| 20260503183737 | 20 | 293 | 19.3 | 22.5 | 0.00 | 0.00 | 0.00 | 41 | 1005.5 |
| 20260503183235 | 20 | 254 | 11.3 | 12.9 | 0.00 | 0.00 | 0.00 | 41 | 1005.4 |
| 20260503182732 | 19 | 312 | 3.2 | 16.1 | 0.00 | 0.00 | 0.00 | 41 | 1005.2 |
| 20260503182231 | 20 | 282 | 17.7 | 17.7 | 0.00 | 0.00 | 0.00 | 40 | 1005.5 |
| 20260503181728 | 20 | 269 | 8.0 | 17.7 | 0.00 | 0.00 | 0.00 | 40 | 1005.4 |
| 20260503181225 | 20 | 324 | 6.4 | 9.7 | 0.00 | 0.00 | 0.00 | 41 | 1005.5 |
| 20260503180721 | 19 | 300 | 11.3 | 22.5 | 0.00 | 0.00 | 0.00 | 41 | 1005.6 |
| 20260503180219 | 19 | 268 | 14.5 | 20.9 | 0.00 | 0.00 | 0.00 | 41 | 1005.7 |
| 20260503175715 | 19 | 317 | 12.9 | 17.7 | 0.00 | 0.00 | 0.00 | 42 | 1005.8 |
| 20260503175214 | 18 | 298 | 8.0 | 11.3 | 0.00 | 0.00 | 0.00 | 43 | 1005.8 |
| 20260503174709 | 18 | 280 | 9.7 | 14.5 | 0.00 | 0.00 | 0.00 | 44 | 1005.9 |
| 20260503174207 | 18 | 228 | 6.4 | 12.9 | 0.00 | 0.00 | 0.00 | 43 | 1005.8 |
| 20260503173707 | 18 | 237 | 1.6 | 11.3 | 0.00 | 0.00 | 0.00 | 43 | 1005.9 |
| 20260503173204 | 18 | 303 | 12.9 | 20.9 | 0.00 | 0.00 | 0.00 | 43 | 1005.8 |
| 20260503172701 | 18 | 294 | 16.1 | 20.9 | 0.00 | 0.00 | 0.00 | 43 | 1005.8 |
| 20260503172158 | 18 | 261 | 8.0 | 14.5 | 0.00 | 0.00 | 0.00 | 43 | 1005.9 |
| 20260503171654 | 18 | 292 | 12.9 | 20.9 | 0.00 | 0.00 | 0.00 | 43 | 1006.2 |
| 20260503171152 | 17 | 280 | 20.9 | 38.6 | 0.00 | 0.00 | 0.00 | 44 | 1006.2 |
| 20260503170649 | 18 | 284 | 17.7 | 25.7 | 0.00 | 0.00 | 0.00 | 43 | 1006.3 |
| 20260503170145 | 17 | 272 | 17.7 | 20.9 | 0.00 | 0.00 | 0.00 | 43 | 1006.2 |
| 20260503160107 | 16 | 297 | 6.4 | 11.3 | 0.00 | 0.00 | 0.00 | 45 | 1006.3 |
| 20260503150537 | 16 | 285 | 12.9 | 17.7 | 0.00 | 0.00 | 0.00 | 46 | 1006.3 |
| 20260503130927 | 14 | 182 | 4.8 | 12.9 | 0.00 | 0.00 | 0.00 | 53 | 1006.7 |
| 20260503130424 | 14 | 200 | 3.2 | 8.0 | 0.00 | 0.00 | 0.00 | 52 | 1006.7 |
| 20260503110823 | 10 | 170 | 6.4 | 8.0 | 0.00 | 0.00 | 0.00 | 69 | 1007.0 |
| 20260503110320 | 10 | 164 | 4.8 | 4.8 | 0.00 | 0.00 | 0.00 | 70 | 1007.1 |
| 20260503100246 | 10 | 165 | 8.0 | 9.7 | 0.00 | 0.00 | 0.00 | 64 | 1007.1 |
| 20260503090206 | 11 | 165 | 3.2 | 3.2 | 0.00 | 0.00 | 0.00 | 55 | 1007.7 |
| 20260503081636 | 12 | 203 | 3.2 | 8.0 | 0.00 | 0.00 | 0.00 | 54 | 1008.1 |
| 20260503081133 | 12 | 208 | 4.8 | 4.8 | 0.00 | 0.00 | 0.00 | 54 | 1008.3 |
| 20260503080629 | 12 | 210 | 3.2 | 9.7 | 0.00 | 0.00 | 0.00 | 53 | 1008.2 |
| 20260503080126 | 12 | 199 | 1.6 | 3.2 | 0.00 | 0.00 | 0.00 | 53 | 1008.3 |
| 20260503072602 | 12 | 224 | 3.2 | 8.0 | 0.00 | 0.00 | 0.00 | 54 | 1008.4 |
| 20260503072100 | 12 | 199 | 3.2 | 9.7 | 0.00 | 0.00 | 0.00 | 54 | 1008.4 |
| 20260503071556 | 12 | 201 | 4.8 | 8.0 | 0.00 | 0.00 | 0.00 | 55 | 1008.5 |
| 20260503071053 | 12 | 205 | 4.8 | 9.7 | 0.00 | 0.00 | 0.00 | 56 | 1008.7 |
| 20260503070549 | 12 | 216 | 6.4 | 8.0 | 0.00 | 0.00 | 0.00 | 57 | 1008.6 |
| 20260503055003 | 14 | 237 | 0.0 | 4.8 | 0.00 | 0.00 | 0.00 | 53 | 1010.1 |
| 20260503054459 | 13 | 243 | 4.8 | 11.3 | 0.00 | 0.00 | 0.00 | 53 | 1010.3 |
| 20260503053956 | 13 | 307 | 8.0 | 8.0 | 0.00 | 0.00 | 0.00 | 53 | 1010.2 |
| 20260503053454 | 13 | 249 | 1.6 | 4.8 | 0.00 | 0.00 | 0.00 | 51 | 1010.3 |
| 20260503052951 | 14 | 238 | 3.2 | 4.8 | 0.00 | 0.00 | 0.00 | 50 | 1010.3 |
| 20260503052448 | 14 | 246 | 3.2 | 4.8 | 0.00 | 0.00 | 0.00 | 50 | 1010.4 |
| 20260503051944 | 14 | 236 | 3.2 | 3.2 | 0.00 | 0.00 | 0.00 | 50 | 1010.4 |
| 20260503051440 | 14 | 221 | 4.8 | 8.0 | 0.00 | 0.00 | 0.00 | 50 | 1010.3 |
| 20260503050938 | 14 | 225 | 1.6 | 4.8 | 0.00 | 0.00 | 0.00 | 49 | 1010.3 |
| 20260503050433 | 14 | 251 | 3.2 | 4.8 | 0.00 | 0.00 | 0.00 | 49 | 1010.2 |
| 20260503045932 | 14 | 237 | 3.2 | 9.7 | 0.00 | 0.00 | 0.00 | 49 | 1010.4 |
| 20260503045429 | 14 | 237 | 8.0 | 12.9 | 0.00 | 0.00 | 0.00 | 48 | 1010.5 |
| 20260503044925 | 14 | 211 | 6.4 | 9.7 | 0.00 | 0.00 | 0.00 | 48 | 1010.2 |
| 20260503044422 | 14 | 219 | 6.4 | 9.7 | 0.00 | 0.00 | 0.00 | 48 | 1010.3 |
| 20260503043920 | 14 | 219 | 4.8 | 11.3 | 0.00 | 0.00 | 0.00 | 47 | 1010.6 |
| 20260503043416 | 14 | 217 | 3.2 | 8.0 | 0.00 | 0.00 | 0.00 | 47 | 1010.5 |
| 20260503042913 | 14 | 236 | 4.8 | 8.0 | 0.00 | 0.00 | 0.00 | 47 | 1010.7 |
| 20260503042409 | 14 | 209 | 4.8 | 11.3 | 0.00 | 0.00 | 0.00 | 47 | 1010.7 |
| 20260503041906 | 14 | 189 | 1.6 | 4.8 | 0.00 | 0.00 | 0.00 | 47 | 1010.6 |
| 20260503041403 | 14 | 244 | 4.8 | 4.8 | 0.00 | 0.00 | 0.00 | 47 | 1010.7 |
| 20260503040900 | 14 | 210 | 3.2 | 4.8 | 0.00 | 0.00 | 0.00 | 48 | 1010.7 |
| 20260503040358 | 14 | 214 | 6.4 | 8.0 | 0.00 | 0.00 | 0.00 | 47 | 1011.0 |
| 20260503035854 | 14 | 199 | 3.2 | 4.8 | 0.00 | 0.00 | 0.00 | 46 | 1010.9 |
| 20260503035351 | 14 | 215 | 1.6 | 4.8 | 0.00 | 0.00 | 0.00 | 46 | 1011.1 |
| 20260503034848 | 14 | 239 | 1.6 | 4.8 | 0.00 | 0.00 | 0.00 | 46 | 1011.0 |
| 20260503034346 | 14 | 228 | 1.6 | 4.8 | 0.00 | 0.00 | 0.00 | 46 | 1011.0 |
| 20260503033843 | 13 | 228 | 3.2 | 4.8 | 0.00 | 0.00 | 0.00 | 47 | 1011.2 |
| 20260503033341 | 13 | 202 | 3.2 | 4.8 | 0.00 | 0.00 | 0.00 | 48 | 1011.3 |
| 20260503032838 | 13 | 193 | 1.6 | 3.2 | 0.00 | 0.00 | 0.00 | 49 | 1011.4 |
| 20260503032337 | 13 | 216 | 0.0 | 1.6 | 0.00 | 0.00 | 0.00 | 49 | 1011.5 |
| 20260503031834 | 13 | 226 | 0.0 | 1.6 | 0.00 | 0.00 | 0.00 | 48 | 1011.7 |
| 20260503031332 | 13 | 252 | 3.2 | 4.8 | 0.00 | 0.00 | 0.00 | 48 | 1011.6 |
| 20260503030828 | 13 | 245 | 1.6 | 4.8 | 0.00 | 0.00 | 0.00 | 48 | 1011.5 |
| 20260503030325 | 13 | 249 | 3.2 | 3.2 | 0.00 | 0.00 | 0.00 | 48 | 1011.6 |
| 20260503025821 | 13 | 236 | 4.8 | 4.8 | 0.00 | 0.00 | 0.00 | 46 | 1011.8 |
| 20260503025319 | 13 | 193 | 3.2 | 4.8 | 0.00 | 0.00 | 0.00 | 46 | 1011.7 |
| 20260503024815 | 13 | 247 | 3.2 | 4.8 | 0.00 | 0.00 | 0.00 | 46 | 1011.7 |
| 20260503024312 | 13 | 217 | 1.6 | 3.2 | 0.00 | 0.00 | 0.00 | 46 | 1011.9 |
| 20260503023809 | 13 | 210 | 1.6 | 3.2 | 0.00 | 0.00 | 0.00 | 46 | 1011.7 |
| 20260503023307 | 13 | 217 | 1.6 | 3.2 | 0.00 | 0.00 | 0.00 | 45 | 1011.6 |
| 20260503022803 | 13 | 214 | 0.0 | 3.2 | 0.00 | 0.00 | 0.00 | 45 | 1011.9 |
| 20260503022304 | 13 | 217 | 0.0 | 1.6 | 0.00 | 0.00 | 0.00 | 45 | 1011.8 |
| 20260503021759 | 13 | 220 | 0.0 | 1.6 | 0.00 | 0.00 | 0.00 | 45 | 1011.7 |
| 20260503021255 | 13 | 213 | 0.0 | 1.6 | 0.00 | 0.00 | 0.00 | 45 | 1011.8 |
| 20260503020754 | 13 | 220 | 1.6 | 1.6 | 0.00 | 0.00 | 0.00 | 45 | 1011.8 |
| 20260503020251 | 13 | 207 | 1.6 | 1.6 | 0.00 | 0.00 | 0.00 | 45 | 1011.8 |
| 20260503015747 | 13 | 206 | 0.0 | 3.2 | 0.00 | 0.00 | 0.00 | 45 | 1011.9 |
| 20260503015244 | 13 | 203 | 1.6 | 3.2 | 0.00 | 0.00 | 0.00 | 45 | 1011.7 |
| 20260503014739 | 13 | 198 | 1.6 | 3.2 | 0.00 | 0.00 | 0.00 | 44 | 1011.7 |
| 20260503014238 | 13 | 200 | 1.6 | 4.8 | 0.00 | 0.00 | 0.00 | 44 | 1011.8 |
| 20260503013735 | 14 | 196 | 1.6 | 3.2 | 0.00 | 0.00 | 0.00 | 44 | 1011.9 |
| 20260503013232 | 14 | 199 | 3.2 | 4.8 | 0.00 | 0.00 | 0.00 | 44 | 1011.9 |
| 20260503012730 | 14 | 195 | 3.2 | 4.8 | 0.00 | 0.00 | 0.00 | 43 | 1011.8 |
| 20260503012227 | 14 | 207 | 0.0 | 3.2 | 0.00 | 0.00 | 0.00 | 44 | 1012.0 |
| 20260503011723 | 14 | 201 | 3.2 | 3.2 | 0.00 | 0.00 | 0.00 | 43 | 1012.0 |
| 20260503011220 | 15 | 198 | 4.8 | 4.8 | 0.00 | 0.00 | 0.00 | 43 | 1012.0 |
| 20260503010716 | 15 | 189 | 4.8 | 8.0 | 0.00 | 0.00 | 0.00 | 42 | 1012.1 |
| 20260503010213 | 15 | 198 | 3.2 | 4.8 | 0.00 | 0.00 | 0.00 | 42 | 1012.0 |
| 20260503005711 | 15 | 200 | 3.2 | 4.8 | 0.00 | 0.00 | 0.00 | 42 | 1012.2 |
| 20260503005208 | 15 | 182 | 3.2 | 4.8 | 0.00 | 0.00 | 0.00 | 41 | 1012.2 |
| 20260503004704 | 15 | 208 | 3.2 | 8.0 | 0.00 | 0.00 | 0.00 | 40 | 1012.1 |
| 20260503004203 | 15 | 201 | 3.2 | 3.2 | 0.00 | 0.00 | 0.00 | 40 | 1012.1 |
| 20260503003700 | 15 | 189 | 4.8 | 4.8 | 0.00 | 0.00 | 0.00 | 40 | 1012.2 |
| 20260503003156 | 15 | 204 | 1.6 | 3.2 | 0.00 | 0.00 | 0.00 | 39 | 1012.1 |
| 20260503002653 | 15 | 226 | 1.6 | 3.2 | 0.00 | 0.00 | 0.00 | 39 | 1012.2 |
| 20260503002150 | 16 | 211 | 3.2 | 3.2 | 0.00 | 0.00 | 0.00 | 39 | 1012.2 |
| 20260503001646 | 15 | 231 | 6.4 | 11.3 | 0.00 | 0.00 | 0.00 | 38 | 1012.3 |
| 20260503001143 | 16 | 254 | 6.4 | 11.3 | 0.00 | 0.00 | 0.00 | 38 | 1012.5 |